Theta_e
317 317 317 317 318 321 322 323 321 322 323 316 318 320 322 326 326 325 325 325 325 329 328 330 332 332 334 335 335 338 340 340 340 340 344 352 351 351 351 349 351 350 347 338 333 333 329 325 318 314 311 312 314 316 316 316 316 318 320 322 325 327 327 330 334 337 338 337 336 336 336 337 336 337 338 338 338 337 337 337 336 336 335 333 332 331 329 328 328 329 331 332 332 333 330 322 312
317 317 317 317 319 321 322 323 320 319 318 314 318 320 323 326 326 324 325 325 325 328 328 331 331 331 333 335 335 335 342 344 345 350 352 351 350 353 351 350 351 350 348 340 334 334 330 326 320 314 312 312 315 316 316 316 316 316 318 319 321 325 330 334 335 336 337 337 337 337 337 337 337 337 337 338 338 337 337 337 337 336 334 332 331 331 328 328 332 333 332 333 334 334 331 322 313
316 316 317 319 320 321 322 323 318 315 315 314 317 323 325 325 325 325 325 325 325 326 327 329 329 333 331 333 335 335 344 345 349 353 352 352 353 352 351 351 351 350 348 341 335 334 330 326 321 316 311 312 315 316 316 317 317 316 316 317 321 329 334 334 335 336 337 337 338 338 338 338 337 337 337 337 337 337 337 337 336 335 334 331 330 329 325 328 334 335 334 334 334 333 331 325 316
315 315 317 319 320 321 322 321 320 317 315 314 316 323 326 325 326 325 326 325 324 324 325 328 329 335 332 332 335 336 343 347 351 354 352 353 353 353 352 351 350 350 347 343 339 334 331 326 321 317 311 312 315 316 316 317 317 316 315 318 325 333 334 334 335 337 338 338 338 338 338 338 338 337 336 336 336 336 335 334 334 334 332 330 330 328 323 329 335 335 335 333 331 328 325 320 314
314 317 317 318 320 321 322 321 321 318 316 317 318 323 326 325 325 325 325 323 324 324 325 328 329 333 334 333 333 339 346 348 351 352 353 354 353 353 351 351 350 349 346 345 342 335 330 326 321 317 312 311 315 317 317 318 318 316 316 321 327 331 333 336 337 338 339 338 338 338 338 338 337 336 336 335 335 334 333 332 332 331 331 329 327 325 322 329 336 335 334 331 326 322 318 315 313
316 317 318 318 319 321 321 319 318 318 319 322 320 323 325 324 325 325 325 323 324 324 326 328 328 329 333 336 335 344 349 348 349 350 353 354 353 352 351 351 350 348 346 346 344 337 330 327 322 318 313 311 315 317 317 318 319 317 320 325 327 330 334 337 338 338 338 338 338 338 337 337 336 335 335 334 332 330 330 329 328 327 326 324 321 319 318 327 335 333 331 327 321 318 317 315 313
317 318 319 319 320 320 319 317 317 318 321 324 322 324 324 325 325 325 324 324 323 324 327 327 328 328 330 335 339 349 350 346 348 350 353 353 353 352 351 350 349 348 346 346 345 337 331 327 321 319 314 311 314 317 317 318 319 319 322 326 330 333 336 338 337 337 337 337 337 337 336 335 335 334 333 330 325 321 320 319 319 318 317 316 314 313 313 322 332 331 329 324 318 318 317 315 313
316 318 320 320 320 320 319 317 318 319 321 323 324 324 324 325 325 324 323 323 323 324 326 327 329 328 330 331 337 350 351 348 351 351 353 352 353 352 350 350 348 348 346 347 344 336 331 327 322 321 316 311 313 316 317 318 319 320 323 328 333 336 336 337 336 336 336 337 337 337 336 334 333 332 329 324 316 312 311 311 311 310 310 309 309 309 310 316 325 328 326 321 318 318 317 315 313
316 317 318 319 319 319 318 318 319 321 322 323 323 324 325 325 324 324 322 323 323 323 324 326 328 326 327 329 339 350 351 351 352 352 353 352 352 351 350 349 348 348 346 347 343 335 331 328 323 322 319 312 311 315 317 318 319 320 323 329 335 336 337 337 335 335 335 337 336 336 335 332 330 328 323 317 311 309 308 308 308 308 308 308 308 308 311 315 322 325 324 320 319 318 317 316 314
317 317 318 318 318 316 315 317 319 321 322 323 324 324 325 324 324 324 323 323 322 323 323 323 324 323 324 327 340 349 351 353 352 352 353 353 351 350 351 349 347 347 346 346 342 335 332 329 326 324 321 315 310 314 317 318 319 320 322 327 332 335 336 336 335 334 335 336 335 334 333 329 325 322 317 312 309 308 308 309 309 308 308 308 308 308 312 318 323 323 322 320 320 319 318 317 315
317 317 318 317 316 314 314 316 318 321 322 323 324 324 324 324 324 323 323 322 322 323 322 323 322 322 323 325 343 352 352 353 352 351 352 353 351 350 350 348 347 346 346 346 341 335 332 330 329 326 322 318 312 312 315 317 318 319 321 326 332 334 334 335 334 334 335 334 333 332 329 325 322 317 312 309 308 308 308 309 309 309 308 308 308 309 313 319 322 322 321 320 320 319 319 319 317
318 318 318 315 314 315 315 317 318 321 322 322 323 324 324 323 323 321 321 321 322 322 321 323 321 322 322 323 347 354 353 352 352 351 352 352 350 350 347 347 346 345 346 345 341 336 333 331 330 329 325 320 314 310 313 316 316 318 320 325 332 334 333 334 333 334 334 334 332 330 327 323 318 313 310 309 309 309 309 309 309 309 309 308 309 310 313 318 320 320 320 320 321 320 321 320 318
318 318 318 316 316 317 317 317 319 321 321 322 323 324 323 322 322 321 321 321 321 321 321 322 320 323 321 329 350 354 353 353 352 350 351 352 350 348 346 347 345 345 345 344 341 337 334 333 331 332 329 323 317 311 311 312 314 316 318 326 333 333 333 333 333 333 333 333 331 328 325 320 315 312 310 309 309 309 309 309 310 309 309 309 309 309 313 317 319 319 319 320 321 320 322 321 320
318 318 318 317 317 318 317 317 318 318 319 322 323 323 322 321 321 320 321 320 321 321 321 322 321 322 321 334 351 352 351 351 352 351 351 350 348 348 347 346 345 344 344 343 342 339 338 336 334 334 332 326 320 314 312 311 312 314 318 327 332 332 333 333 333 333 333 332 329 328 325 320 315 312 310 309 309 309 310 310 310 310 310 310 309 309 311 315 318 318 319 320 322 321 322 323 322
317 318 318 317 317 317 317 317 318 317 318 322 322 322 321 320 320 319 320 320 321 324 325 325 322 323 323 328 341 348 348 350 352 351 350 349 348 348 347 346 345 344 343 343 342 341 340 339 337 334 334 330 322 317 314 312 311 313 317 326 331 332 333 333 332 332 333 332 329 328 324 320 316 314 311 310 309 309 310 310 310 310 310 310 310 310 309 313 317 317 319 320 322 322 323 324 324
317 318 318 316 316 316 317 318 319 317 319 322 321 320 320 320 319 319 320 322 326 330 332 330 325 323 324 325 330 344 348 349 351 350 350 349 348 348 347 346 345 344 344 344 342 341 341 341 338 335 337 333 327 322 315 313 311 312 315 323 330 332 333 332 332 332 332 331 328 327 325 322 319 314 311 309 310 310 310 310 310 310 310 311 310 310 310 310 314 316 317 319 322 324 324 324 325
317 318 317 316 315 316 317 319 319 317 320 321 320 320 319 319 320 319 321 326 329 331 333 331 328 324 324 333 339 346 348 350 351 350 350 349 349 348 347 347 345 344 344 344 343 342 342 342 339 338 339 336 335 328 318 315 311 311 315 320 326 331 333 331 331 330 331 331 328 331 333 332 328 322 319 312 309 309 310 310 310 311 310 310 311 310 310 310 312 315 316 317 319 322 323 323 323
317 318 316 316 317 317 319 320 320 320 320 321 320 320 319 319 320 322 323 328 330 328 331 330 327 325 328 339 346 350 350 351 351 350 350 350 349 348 347 347 345 345 345 344 344 342 343 343 341 341 340 338 338 332 326 318 310 317 322 325 327 329 331 331 331 331 333 330 329 337 338 338 336 334 332 321 316 312 309 311 309 310 310 310 311 310 310 309 310 312 314 315 316 319 321 322 324
318 318 316 316 318 319 321 321 321 321 320 321 320 320 319 320 320 323 323 326 330 331 333 329 327 328 332 341 346 350 352 351 351 351 350 349 349 348 348 347 347 346 346 345 344 343 344 345 342 342 341 339 338 336 332 321 317 328 331 332 331 329 329 331 334 333 335 331 331 339 338 337 337 335 335 327 324 317 309 312 311 311 311 310 310 311 310 310 310 310 313 314 315 317 319 326 332
318 318 317 317 318 320 321 321 321 320 320 320 320 320 320 320 320 321 321 322 328 332 334 330 331 332 335 342 343 346 349 351 351 350 350 349 350 349 348 348 347 347 346 345 344 344 345 345 344 343 342 340 339 339 336 327 328 333 333 334 334 333 331 333 336 334 335 333 333 337 336 337 335 334 330 321 322 321 316 314 313 313 311 312 311 310 310 309 309 309 310 312 314 315 319 330 335
318 317 316 318 319 319 320 320 320 319 319 319 320 320 320 320 320 320 320 321 324 328 332 331 333 335 336 342 344 345 347 350 351 350 350 350 350 349 349 348 348 347 346 345 345 345 345 345 344 343 342 340 339 340 339 335 335 335 334 335 335 335 334 335 337 335 335 335 335 335 335 335 334 334 327 322 329 330 327 319 317 318 315 317 314 314 319 316 313 312 313 312 311 316 325 332 333
318 318 318 319 319 319 320 320 319 319 318 318 319 319 319 320 320 320 320 321 323 328 333 333 334 336 336 340 346 348 347 350 351 350 351 350 350 350 349 348 348 347 346 346 345 346 345 344 344 343 341 340 339 340 340 337 336 335 334 335 335 335 335 336 336 335 335 335 335 335 335 333 333 336 330 328 331 328 330 330 330 328 324 329 322 323 333 330 327 327 327 324 321 325 329 332 331
318 318 319 319 319 320 320 320 319 318 318 318 318 318 319 320 320 320 320 321 322 328 335 335 333 335 336 338 346 349 348 350 350 350 350 350 350 350 349 348 348 347 346 345 346 346 345 344 344 343 341 340 340 341 340 337 336 334 334 335 335 335 335 335 335 334 335 334 335 334 332 332 333 334 326 324 328 328 334 336 336 334 332 336 330 329 336 333 332 334 334 333 331 330 329 328 331
318 317 319 319 319 319 320 320 319 318 318 318 318 318 319 319 320 320 321 322 322 327 335 337 334 336 337 339 345 348 348 349 349 350 349 348 349 349 348 348 347 346 345 345 346 346 345 344 343 342 342 340 340 339 338 337 334 334 335 334 335 334 335 335 335 335 335 334 335 331 328 333 333 328 324 329 335 336 338 336 338 338 337 339 335 334 337 334 334 334 333 334 333 333 330 330 329
317 317 319 319 320 319 319 319 319 319 319 318 318 318 319 320 320 320 321 321 322 328 336 337 336 338 339 339 343 345 346 348 349 349 349 348 349 349 347 347 347 346 345 346 346 346 345 343 342 341 341 341 340 337 337 335 333 336 334 332 334 333 333 336 335 334 333 333 333 329 324 331 333 330 334 338 339 338 338 337 338 340 339 339 339 338 339 338 337 336 335 334 333 333 333 333 332
317 318 319 319 319 319 319 320 319 319 319 319 318 318 319 319 319 320 321 321 325 333 337 338 338 338 339 338 339 342 346 349 349 349 348 347 347 347 346 346 346 345 345 346 346 345 344 342 341 341 341 341 339 336 336 334 334 335 331 333 334 330 333 337 335 333 333 333 331 325 320 329 335 336 339 339 338 338 337 337 338 340 340 339 339 339 339 339 339 338 337 336 335 334 334 334 334
317 318 318 318 318 319 320 319 319 318 318 318 318 318 319 319 319 320 320 322 330 335 337 339 339 335 337 339 337 342 348 349 349 348 347 347 346 346 345 345 345 346 346 345 346 345 343 342 341 341 341 340 338 336 335 333 334 333 333 335 331 331 335 333 332 333 333 334 332 326 324 332 338 339 339 338 339 338 338 338 338 340 341 340 340 340 340 339 339 339 339 338 337 335 335 334 334
318 318 318 318 317 319 319 319 319 318 318 318 318 318 318 319 319 321 323 329 333 334 337 339 338 336 338 341 340 345 350 349 348 347 347 346 346 345 345 345 344 345 345 344 345 344 342 341 341 340 340 339 336 334 334 334 334 334 335 335 330 332 332 327 332 335 334 334 334 332 333 337 339 339 338 338 338 339 340 340 340 340 340 341 340 339 338 337 337 337 337 337 336 335 336 335 335
317 317 317 317 316 317 318 319 319 318 318 318 318 317 317 318 320 322 327 333 334 332 338 339 338 340 341 344 345 349 350 348 347 346 346 346 345 346 345 344 344 343 344 343 344 344 342 341 340 340 338 337 335 334 334 333 334 334 334 335 334 331 327 330 336 336 336 336 335 335 336 337 338 339 338 337 337 338 339 340 340 341 340 340 339 336 335 334 334 336 337 337 336 336 337 337 336
316 316 316 316 315 316 318 319 318 319 319 319 318 314 315 318 320 322 325 333 336 335 339 338 339 341 340 345 349 349 349 347 347 346 346 346 345 346 345 345 344 343 344 343 344 343 341 340 339 339 337 336 336 334 334 334 333 333 334 336 334 330 330 336 337 335 337 337 335 335 334 336 338 339 338 337 337 339 340 340 340 341 340 339 337 335 335 334 335 336 337 337 337 337 336 335 335
315 315 315 316 314 314 318 318 318 318 318 319 318 313 315 318 319 321 322 331 336 337 339 338 340 341 341 348 349 349 349 347 347 346 346 346 345 346 346 346 345 344 344 343 343 341 339 339 338 338 337 336 335 333 334 333 331 332 336 337 333 332 336 337 337 337 337 337 337 335 334 337 337 337 338 337 337 339 340 341 341 341 339 337 336 335 335 335 336 337 338 337 337 337 337 336 335
315 314 313 314 313 315 318 318 318 318 318 319 318 314 316 319 320 321 322 330 334 336 340 339 340 342 344 349 347 347 348 347 346 346 346 346 346 346 346 346 344 344 344 343 343 341 339 339 339 338 336 335 334 333 333 330 330 333 336 336 334 335 337 337 338 338 336 336 336 335 336 337 335 335 335 335 336 338 340 341 340 339 337 335 335 334 334 336 337 337 337 337 336 336 337 337 336
315 313 312 313 312 314 316 318 318 318 318 319 317 315 316 319 321 321 323 330 333 336 340 337 336 340 345 348 347 347 347 346 346 346 346 346 346 345 344 344 342 343 344 344 344 341 339 339 339 338 336 335 332 330 330 326 328 333 334 335 336 336 337 338 338 337 336 337 337 338 337 335 333 333 334 334 336 337 339 340 339 337 336 334 332 333 335 336 336 335 336 335 335 335 337 337 337
314 313 313 313 313 313 314 317 318 318 318 318 318 317 317 320 321 322 326 330 331 336 342 339 338 341 344 347 347 345 345 347 346 345 346 346 345 344 343 342 342 343 344 344 344 341 340 339 339 338 337 335 331 328 325 323 328 334 336 336 336 337 339 338 338 338 338 338 339 339 337 334 333 334 336 336 336 337 337 337 337 337 336 334 332 333 335 336 335 335 335 334 334 334 335 337 336
313 313 312 313 314 314 314 317 318 318 317 317 318 317 318 320 321 325 329 330 329 336 343 342 341 342 342 344 342 342 344 345 345 344 344 344 343 343 341 342 342 343 343 343 342 342 341 339 339 338 336 333 330 327 325 325 331 336 337 338 338 339 340 339 338 338 338 338 339 338 336 336 336 337 338 337 336 336 336 336 336 335 334 333 333 333 335 336 335 335 335 334 332 332 333 335 335
315 314 313 313 313 314 316 318 319 318 317 317 318 317 317 319 322 326 328 328 328 336 340 339 342 342 338 338 337 340 342 342 344 344 343 342 341 342 341 341 342 341 341 341 341 342 341 339 339 338 335 332 330 329 328 330 334 336 338 340 340 340 340 338 337 337 338 338 337 336 336 336 337 338 337 336 336 335 335 335 334 334 334 334 334 334 335 336 335 335 335 333 332 331 332 334 335
316 315 314 314 314 314 316 318 319 318 317 317 318 318 318 319 321 325 328 328 327 337 338 335 342 342 334 334 335 338 339 339 342 341 341 341 340 341 342 343 343 341 341 339 340 341 341 340 339 337 336 334 333 332 331 332 335 338 340 340 340 340 339 337 336 337 339 339 337 336 337 337 337 337 336 336 335 334 334 334 334 335 335 335 336 335 335 335 334 334 334 334 334 333 332 333 334
316 315 315 314 315 315 317 318 318 318 317 316 319 318 318 319 321 325 327 327 329 338 341 338 340 336 332 334 335 338 338 339 340 339 338 338 339 341 342 343 342 340 341 340 340 340 340 340 338 338 338 336 335 334 334 335 337 340 340 339 340 340 339 338 337 337 339 339 337 336 337 336 336 336 336 335 334 334 334 334 335 335 335 335 336 335 335 335 335 335 336 336 335 334 333 333 333
316 316 314 313 315 316 317 318 318 318 317 316 318 317 318 319 320 323 325 327 331 335 340 339 334 331 332 334 335 337 338 338 340 340 338 337 339 341 341 342 342 341 341 340 340 340 340 340 338 338 339 336 337 337 337 337 338 338 338 338 339 339 339 338 338 338 337 337 336 336 336 336 335 336 335 335 335 334 333 334 335 335 334 335 335 335 335 335 335 335 335 335 335 334 334 334 334
315 316 314 313 315 315 314 315 318 317 317 317 318 317 318 320 319 320 323 327 332 336 337 333 331 333 334 334 335 337 338 338 339 339 338 338 340 340 341 341 342 341 341 341 341 340 341 340 338 338 338 337 338 337 336 336 335 335 336 336 337 337 338 337 337 337 336 336 336 336 336 335 335 336 336 336 337 335 334 334 334 333 333 334 335 335 335 335 335 334 334 333 333 333 334 334 333
315 316 315 314 315 315 315 316 317 316 317 317 318 316 315 319 319 319 323 324 330 337 335 333 332 336 337 335 336 337 337 337 338 337 338 340 340 340 340 341 341 341 340 342 341 340 340 339 338 339 338 338 338 336 336 335 335 335 335 336 335 335 337 337 337 338 337 336 336 336 336 335 336 336 336 337 338 336 334 333 333 333 334 334 335 335 335 335 335 334 333 333 333 332 332 333 333
314 316 316 316 316 316 317 318 316 314 314 316 317 313 313 318 318 319 322 322 330 336 336 335 334 337 338 337 338 339 339 338 338 338 339 340 340 340 340 341 342 340 340 342 341 341 340 339 339 338 337 338 336 335 336 336 337 337 336 336 335 334 337 337 337 338 338 338 338 337 336 336 336 336 336 336 337 337 336 334 334 335 335 334 334 333 333 332 332 333 333 332 333 332 332 332 333
313 315 316 316 317 316 316 317 314 312 312 315 318 314 313 316 317 320 321 323 333 334 334 336 338 339 340 340 341 342 341 340 340 340 341 341 340 340 340 341 341 340 340 342 341 341 340 340 340 338 336 337 335 335 336 336 337 338 337 336 335 335 337 336 336 338 339 338 337 336 336 336 337 336 336 337 336 336 336 336 335 334 334 333 331 330 329 329 330 331 332 330 330 332 332 333 334
313 315 316 316 316 316 316 316 314 314 314 315 317 315 313 313 316 321 321 324 334 335 332 336 338 339 340 341 342 342 343 341 340 340 341 341 340 340 340 340 341 340 340 341 341 341 340 340 340 338 336 336 336 337 337 336 336 338 338 336 335 336 336 335 337 338 337 337 336 336 337 336 336 336 336 336 336 335 333 333 333 332 332 332 330 329 330 330 330 329 329 329 329 330 332 333 333
314 316 316 316 316 317 316 315 314 315 315 313 314 315 313 312 316 322 322 323 331 335 332 332 334 335 337 341 341 342 343 341 340 341 341 341 340 340 340 341 341 340 340 340 340 340 340 340 340 337 336 336 337 337 336 336 336 337 337 336 336 336 337 337 338 337 335 335 335 336 335 334 334 334 333 333 333 332 331 331 331 330 330 331 329 330 331 330 330 329 329 329 329 329 330 332 331
314 316 316 315 316 317 317 316 314 314 314 312 314 314 311 311 315 319 322 321 323 331 331 329 332 332 335 340 341 342 342 340 341 341 341 340 340 340 340 340 340 340 340 339 339 339 339 339 338 336 336 336 336 335 335 336 336 336 335 335 336 336 337 337 336 335 334 334 334 334 333 334 333 333 332 331 331 330 329 329 329 329 329 328 327 328 329 329 329 330 330 329 328 329 330 331 330
315 316 315 315 315 316 316 316 314 313 312 313 314 315 313 311 314 318 321 322 322 326 328 329 332 332 334 338 338 339 339 338 339 341 341 340 340 340 340 339 339 340 339 339 339 339 339 339 337 336 336 335 335 334 335 335 335 335 335 336 336 336 335 334 334 334 334 333 333 333 332 332 332 331 331 330 329 327 326 326 326 326 326 327 327 328 329 329 330 329 329 329 328 328 329 329 329
314 315 314 314 313 313 314 314 314 313 312 313 315 316 314 311 313 319 322 323 324 325 326 329 332 333 333 334 335 336 336 337 339 341 341 340 340 340 339 339 339 339 340 340 340 339 338 337 336 335 335 335 334 333 334 335 336 336 337 337 336 335 334 333 334 334 333 333 332 332 331 330 330 329 328 328 327 325 324 325 324 322 323 324 324 324 325 326 327 328 328 328 328 328 328 329 329
314 314 313 312 311 312 313 312 313 312 312 314 315 315 314 312 315 320 322 322 323 325 326 326 330 333 334 333 333 333 334 337 340 341 341 340 340 339 339 339 339 339 339 340 340 338 337 336 335 334 334 334 334 333 334 336 336 335 336 335 335 335 334 333 333 332 331 331 330 329 329 329 328 327 326 326 325 323 323 322 320 318 319 319 319 319 319 320 324 326 327 327 327 328 328 328 328
312 312 312 312 311 313 314 313 313 313 313 314 315 315 313 313 316 319 321 323 323 323 325 326 326 330 333 333 332 332 336 338 340 341 341 340 340 339 339 338 338 338 339 340 340 338 337 336 336 336 334 334 334 334 334 334 334 333 333 333 332 332 332 331 331 330 329 328 328 328 327 326 326 326 325 324 323 320 319 318 316 316 316 316 317 318 319 320 323 325 326 327 327 327 327 327 327
312 313 313 313 312 313 314 313 312 313 313 313 315 315 312 313 320 324 322 323 325 324 323 325 326 325 328 332 334 336 339 341 341 341 341 340 340 339 339 338 338 338 339 340 339 338 337 336 336 336 335 334 334 333 333 332 331 331 331 330 330 329 329 328 328 327 327 326 326 325 325 325 324 324 323 322 320 316 316 316 315 316 315 315 315 315 316 317 319 321 322 324 325 326 326 326 326
312 313 313 312 313 314 313 313 315 314 313 313 314 314 315 319 326 329 325 324 327 326 324 324 326 325 326 331 335 337 338 340 341 341 340 339 339 339 338 338 338 338 339 338 337 337 337 335 335 335 334 333 332 331 331 330 329 329 328 328 328 327 326 326 325 325 324 323 324 324 324 323 322 322 321 319 316 315 316 315 315 315 315 314 314 314 315 315 315 315 317 320 322 323 323 323 323
312 312 311 313 315 315 313 314 316 315 313 314 313 314 317 322 326 328 326 325 325 325 326 326 326 326 327 332 337 337 338 338 338 340 340 339 339 338 338 338 337 337 337 337 336 335 336 335 333 333 332 331 331 330 329 328 327 327 326 326 326 325 324 324 323 323 322 322 322 322 321 320 318 318 317 315 315 315 314 314 314 314 314 314 314 314 314 314 315 315 315 316 317 318 319 319 319
312 311 312 314 315 316 314 313 314 314 314 314 314 314 315 316 321 326 326 324 323 323 324 325 327 328 329 334 337 336 338 336 334 338 339 338 338 337 338 338 336 335 336 336 335 335 334 333 332 331 331 330 329 328 327 326 326 325 325 324 323 323 322 322 322 322 321 321 321 320 319 318 315 315 315 314 314 314 313 313 313 313 313 314 314 314 315 315 315 316 316 316 317 317 317 317 318
313 312 314 314 312 313 313 313 314 314 314 314 314 315 314 314 319 325 324 324 324 323 323 323 324 328 331 334 335 335 337 336 336 338 338 337 337 338 338 337 335 335 335 334 334 334 332 331 331 330 329 328 327 327 326 325 324 324 323 322 322 322 321 321 321 320 320 319 319 318 317 316 314 314 314 314 314 313 313 313 313 313 314 314 315 315 316 316 315 316 316 317 317 317 318 319 320
314 314 314 314 313 313 312 313 314 314 314 314 314 315 314 315 321 326 325 324 324 323 323 324 324 328 333 334 334 336 338 338 338 337 336 336 336 337 336 335 335 335 335 334 333 332 331 330 330 329 328 327 326 325 324 324 323 322 322 322 321 321 320 320 320 319 319 318 317 317 316 315 314 313 313 313 313 313 313 313 314 315 316 316 316 316 316 315 315 316 316 317 317 317 318 320 321
312 313 312 312 313 314 313 314 314 313 313 313 314 314 314 318 324 326 326 325 324 324 324 325 327 330 332 333 335 338 340 338 336 336 335 335 335 335 335 334 334 334 334 333 332 331 330 329 329 328 327 326 325 324 323 322 322 321 321 320 320 320 319 319 319 319 318 317 316 316 314 314 313 313 313 313 313 313 313 314 315 316 316 316 316 316 315 315 315 316 316 317 318 318 319 319 320
312 313 312 312 313 313 313 314 314 313 313 313 313 312 315 324 328 325 326 325 323 325 324 325 328 330 333 335 338 339 339 337 336 336 335 335 334 334 333 333 333 333 333 332 330 330 329 328 328 327 326 325 324 323 322 322 321 320 320 319 319 318 318 317 317 317 316 315 314 314 313 313 313 313 313 313 314 314 314 315 316 316 316 316 316 315 315 315 315 316 317 318 319 320 320 320 320
Wind_Speed
13 13 13 14 14 15 17 12 9 7 6 9 9 10 8 6 4 5 8 6 4 4 6 5 4 6 5 4 8 4 4 8 9 5 1 7 12 14 13 15 19 18 15 20 20 17 16 13 13 12 11 10 10 10 12 13 14 15 15 15 15 13 13 13 14 15 15 14 14 13 12 11 11 11 10 10 10 10 10 9 9 8 8 8 7 7 7 7 8 7 7 7 8 8 8 8 8
12 12 12 13 12 11 15 10 6 7 8 10 9 10 11 8 4 6 9 7 4 7 5 6 5 5 3 4 10 5 9 12 9 7 8 12 14 14 14 18 19 16 16 20 21 18 17 14 13 13 11 10 10 10 11 13 14 15 14 15 15 14 14 13 14 15 14 13 13 12 11 11 11 11 10 10 10 10 9 9 8 7 7 6 6 7 7 7 8 8 7 8 8 8 8 8 8
12 11 9 11 12 12 12 9 8 8 9 10 9 10 12 10 5 8 6 5 6 6 6 6 6 4 5 5 4 5 7 7 4 9 12 13 16 15 16 19 19 17 16 20 22 19 18 16 14 14 12 11 11 11 11 13 13 14 14 15 16 16 15 14 14 14 13 13 12 12 11 11 10 10 9 9 9 9 8 8 7 7 6 5 5 6 7 6 7 8 7 8 8 7 7 7 8
12 10 7 10 13 12 9 8 8 9 10 9 9 10 13 8 6 9 5 7 5 5 8 7 6 1 7 8 2 2 8 9 4 7 10 12 15 18 19 22 20 16 16 19 21 20 19 17 16 15 13 11 11 12 12 13 14 15 16 17 17 17 15 14 14 13 13 12 12 11 11 10 10 9 8 8 8 7 6 6 6 6 5 4 4 4 5 7 8 8 7 7 7 7 7 8 7
10 8 8 10 11 9 7 7 8 9 10 9 8 11 14 8 8 8 4 4 4 6 9 7 6 3 6 8 4 2 8 11 6 6 10 13 16 20 22 23 19 15 18 19 18 20 19 17 16 15 13 12 12 13 13 14 15 16 17 17 17 17 15 14 13 13 13 12 11 10 10 9 8 8 7 7 6 6 5 5 4 5 4 3 3 4 6 7 8 8 7 7 7 8 8 8 8
8 8 10 11 12 10 8 8 10 11 11 12 11 12 16 12 13 8 3 3 3 6 7 7 7 6 5 3 1 4 6 8 8 7 12 16 19 22 23 23 19 17 21 19 16 20 20 17 17 15 14 13 13 14 14 15 15 17 17 16 16 15 14 13 13 13 13 12 11 10 9 8 7 7 6 6 5 5 5 4 4 3 3 2 3 5 7 8 8 8 7 7 7 9 9 9 9
8 9 10 10 12 11 9 11 12 12 13 16 14 14 17 16 15 7 6 7 3 5 5 6 6 7 5 2 3 7 7 6 7 9 15 19 21 24 23 21 19 20 21 18 15 21 21 18 17 16 14 12 13 14 14 15 15 17 17 16 14 13 13 13 13 13 12 12 11 10 9 8 7 6 5 5 4 4 4 4 3 3 2 2 3 6 8 9 9 8 7 7 8 9 9 9 10
10 11 12 9 8 8 10 12 13 13 14 17 17 18 19 16 11 5 9 10 5 5 5 6 5 7 6 4 4 7 8 8 11 15 19 20 23 26 23 20 21 21 19 18 16 21 22 18 18 16 14 13 13 14 14 15 15 17 17 16 14 12 12 13 13 13 13 12 11 10 9 8 7 5 4 3 3 3 5 5 4 4 3 3 4 6 8 10 9 8 8 8 9 9 9 10 11
12 12 13 10 8 9 11 12 13 14 15 18 19 22 24 19 14 11 12 12 10 9 10 9 7 7 8 7 5 10 10 12 16 18 19 20 23 25 24 20 22 21 20 21 17 21 22 18 18 16 14 12 12 13 13 14 15 15 15 16 15 13 13 13 13 13 13 12 11 10 9 7 5 5 3 3 3 4 5 5 5 5 4 4 5 7 9 11 10 10 9 9 9 9 9 10 11
13 14 11 8 9 11 13 13 13 14 16 18 20 24 24 21 18 15 12 11 13 13 15 12 10 12 11 9 4 11 12 17 19 19 19 20 21 23 24 20 20 21 22 22 17 21 22 19 17 15 15 12 12 12 13 13 13 14 14 15 15 14 13 12 13 12 13 11 10 9 7 6 5 5 4 4 4 4 5 5 5 5 5 5 6 8 10 12 12 11 11 10 9 9 9 10 10
13 14 12 10 10 12 12 13 14 15 17 17 19 23 22 18 16 14 13 13 14 14 15 11 11 13 13 12 2 13 17 19 20 20 19 19 20 22 23 20 20 20 20 19 18 21 21 19 17 14 14 12 12 12 12 13 12 13 13 14 14 14 13 12 12 12 12 11 9 8 6 6 5 5 4 5 4 4 5 4 5 5 6 6 7 9 11 12 12 12 11 10 9 8 9 9 9
12 11 11 9 11 12 13 14 15 16 17 18 17 17 17 17 13 13 14 15 14 14 15 14 12 9 11 12 6 16 18 19 20 21 21 19 20 22 23 21 22 19 16 16 18 22 21 19 18 15 13 12 12 12 12 12 12 12 13 13 14 14 13 13 12 12 12 10 9 7 6 5 5 5 5 5 5 5 5 5 5 5 6 6 7 8 10 12 12 12 11 11 9 8 8 8 8
13 10 9 9 11 12 15 15 15 15 15 16 13 12 16 15 12 13 14 14 13 13 14 14 12 10 11 6 13 17 17 20 20 20 21 20 20 22 23 21 21 20 16 16 18 22 20 19 18 16 15 13 12 12 12 12 12 12 13 13 13 13 14 13 11 11 11 9 8 7 6 5 5 5 5 5 5 5 4 5 5 6 6 6 7 8 10 11 12 12 11 10 9 8 7 7 7
15 14 11 9 11 11 15 14 14 16 12 12 13 13 12 10 10 12 12 12 12 13 12 10 11 13 12 6 13 17 16 20 21 20 21 20 21 22 22 21 21 20 18 17 19 20 19 18 18 17 16 14 14 13 12 12 12 13 13 14 13 14 15 14 12 11 10 9 7 6 6 5 5 5 5 5 5 4 4 4 5 5 6 6 6 7 8 10 11 11 11 10 9 8 6 6 6
17 16 11 9 10 11 13 12 14 15 9 11 13 9 7 7 10 10 11 11 10 10 8 8 10 10 10 12 12 18 20 21 22 22 22 22 22 22 21 21 20 20 19 18 19 19 18 17 17 17 16 15 15 14 14 13 13 13 14 14 14 14 14 13 12 10 9 9 7 6 6 5 6 6 6 5 5 4 4 4 4 4 4 5 6 6 7 8 9 9 10 9 9 8 6 5 4
17 15 9 9 11 11 12 12 13 12 11 11 4 7 5 8 10 9 9 9 9 7 6 8 10 11 13 13 12 22 28 24 24 24 24 23 22 21 21 20 20 20 19 19 19 19 19 17 17 17 15 14 14 14 15 14 14 14 14 14 14 14 14 13 11 10 8 8 7 5 4 4 3 4 6 6 5 4 3 3 3 3 3 4 4 5 5 7 7 8 8 8 8 7 6 5 4
15 13 9 9 11 12 12 12 11 9 13 9 9 8 8 8 9 10 9 8 11 10 9 12 11 15 13 4 3 25 32 28 27 26 26 23 22 22 21 20 20 21 19 19 19 20 20 17 17 16 15 14 13 13 14 15 15 15 14 14 15 14 14 13 11 9 7 6 7 7 6 5 3 2 3 5 5 5 4 3 2 2 2 2 2 3 4 5 7 7 7 7 7 7 5 4 4
12 9 9 10 11 12 12 13 12 9 11 6 8 7 9 8 7 6 7 10 14 12 10 13 12 15 10 9 15 26 32 31 28 27 26 23 22 23 22 21 21 21 19 19 19 20 19 17 17 17 15 14 12 12 13 15 15 14 14 14 14 15 13 11 8 6 6 6 8 9 6 5 2 2 3 4 5 5 4 3 2 2 1 1 2 2 3 4 6 6 6 7 6 5 3 3 4
13 8 9 11 11 13 14 15 12 8 9 4 6 8 8 7 4 3 6 10 13 12 10 13 14 15 10 15 21 22 26 27 27 27 26 24 22 23 23 21 21 20 20 20 20 20 17 15 18 16 15 14 12 10 11 14 14 12 12 12 12 14 13 10 9 8 7 7 7 6 5 5 5 5 5 5 4 4 4 4 2 2 2 2 2 2 3 3 5 6 7 7 7 6 4 2 5
15 11 9 12 13 15 14 11 8 4 7 5 5 8 8 8 6 4 6 8 10 10 10 12 15 15 13 17 22 21 22 22 24 26 25 23 22 22 22 20 20 20 20 21 20 19 16 15 16 15 15 15 12 10 9 11 13 11 12 11 10 13 14 11 9 9 8 8 7 6 6 6 6 6 7 5 4 4 4 4 3 3 3 3 3 4 4 3 5 6 7 8 8 7 4 2 6
14 14 11 12 14 16 11 7 9 6 6 8 7 7 9 10 9 7 8 8 8 10 12 13 15 16 17 18 20 22 24 24 24 25 24 23 22 21 19 18 18 18 19 20 20 17 15 16 15 14 15 14 13 11 9 12 13 12 12 11 11 11 12 11 9 8 8 8 7 6 7 7 6 5 7 4 3 4 4 2 2 3 3 3 4 4 4 3 4 5 6 8 8 7 5 6 9
12 14 17 17 15 12 8 8 11 10 8 10 11 9 10 10 8 9 11 10 6 5 6 11 15 17 19 21 21 22 24 26 25 24 24 23 22 20 17 17 17 18 18 19 18 16 16 16 15 15 15 14 12 11 10 12 13 12 12 12 12 11 11 11 10 8 8 9 9 9 8 6 7 7 7 6 5 5 4 2 2 3 1 3 5 2 4 5 4 5 7 7 6 7 8 10 10
12 13 18 21 19 12 9 9 9 9 11 10 11 12 13 11 8 11 12 12 9 6 3 6 12 17 20 22 21 20 22 25 25 24 24 23 20 19 18 17 17 17 18 18 16 15 17 17 15 14 14 14 12 11 10 11 12 12 12 13 14 12 11 12 11 10 10 10 10 11 9 6 7 9 7 7 5 4 5 5 5 3 2 4 5 1 5 6 4 5 7 7 7 9 11 11 11
15 13 15 19 20 16 12 10 7 8 11 12 12 12 13 11 9 12 12 12 11 7 6 6 9 16 20 21 20 19 21 22 23 23 23 21 20 19 18 17 16 17 17 18 16 15 17 16 16 15 13 13 12 11 10 10 12 13 12 14 14 13 13 12 12 12 12 11 11 11 9 7 7 7 5 5 5 5 6 6 5 3 2 4 5 2 4 5 5 6 7 8 9 9 10 11 11
18 15 15 15 18 19 16 12 9 10 11 12 12 12 13 12 12 12 11 12 11 8 9 10 11 15 20 22 20 20 22 21 22 22 21 20 19 17 16 16 15 17 18 17 15 15 17 17 16 15 14 13 12 12 11 11 12 12 13 14 13 14 14 12 12 13 12 11 10 10 9 8 8 6 6 6 6 6 7 6 4 3 3 4 5 4 5 5 6 7 7 9 9 9 10 10 11
16 18 18 15 15 17 16 15 14 12 11 11 12 14 14 15 14 12 14 15 9 7 10 13 15 17 20 23 22 20 22 22 21 22 20 19 18 16 16 16 16 16 17 16 15 15 16 17 16 15 14 12 11 11 12 12 12 12 12 13 13 13 12 13 13 12 11 10 9 9 9 9 7 7 7 7 6 6 6 5 4 3 4 5 5 5 6 6 6 7 8 9 10 10 10 10 11
14 18 21 20 15 14 14 16 17 15 14 13 13 12 15 18 14 10 16 16 9 9 13 14 17 19 20 23 23 21 22 22 21 21 20 18 17 17 18 16 16 15 15 16 14 14 16 16 16 15 14 13 12 11 12 13 12 12 12 12 13 13 13 15 13 10 10 9 8 9 10 8 6 6 6 5 5 4 3 2 2 3 4 4 5 5 6 6 6 8 9 10 11 11 11 11 11
13 12 17 21 18 15 14 15 16 15 13 15 15 12 15 18 14 12 13 12 10 13 15 17 18 18 18 21 24 22 22 22 20 20 20 19 18 18 18 17 17 15 14 16 14 14 16 16 16 15 15 14 13 12 12 13 13 13 12 12 13 13 15 14 11 10 9 9 10 9 9 7 6 6 5 5 4 2 2 2 2 3 4 4 6 7 8 9 9 10 11 12 12 11 11 11 12
15 11 12 17 18 15 16 16 15 14 11 14 15 12 14 15 14 17 13 10 11 16 17 19 19 18 18 20 23 22 22 22 20 20 19 19 19 17 18 18 19 17 15 15 15 15 16 16 16 15 16 15 13 14 14 13 13 13 13 12 12 13 13 12 10 10 10 10 11 9 9 8 7 6 5 5 4 3 3 2 3 4 5 6 8 9 11 12 12 11 11 12 12 10 11 11 12
16 13 11 11 14 14 18 17 15 15 11 13 14 10 12 15 16 20 17 13 15 17 18 20 19 19 19 21 23 22 22 22 20 21 19 17 17 17 17 17 18 17 16 16 15 16 17 17 17 16 15 13 13 15 14 14 14 14 14 13 13 13 12 11 11 10 10 10 8 6 7 7 6 5 5 4 3 4 3 3 4 5 6 8 10 11 11 12 12 11 10 11 10 10 11 11 11
13 13 10 10 10 11 18 20 16 15 13 16 15 8 10 15 19 23 20 17 17 17 19 20 18 20 23 22 22 21 22 22 20 19 18 17 16 16 17 17 17 16 15 15 15 17 18 17 17 16 14 13 13 14 15 15 15 15 14 13 14 13 12 12 10 9 9 9 6 5 5 6 6 5 4 4 4 4 3 3 4 5 7 8 9 10 9 9 9 10 9 10 10 9 11 11 11
10 12 10 11 10 10 16 20 19 17 14 18 16 9 10 14 20 25 22 18 18 19 19 18 15 17 23 24 22 21 22 21 19 19 19 17 16 16 17 16 16 15 13 14 15 16 17 16 15 14 14 14 14 14 16 16 16 16 16 14 14 13 13 13 11 8 8 7 6 5 5 6 6 5 4 4 4 3 3 4 5 6 7 7 7 8 7 7 8 9 9 10 10 9 10 10 11
11 12 10 12 12 11 12 17 20 19 15 17 17 11 10 12 19 26 23 19 20 20 20 21 17 17 21 23 22 22 22 21 20 20 19 17 17 17 18 16 15 14 13 15 16 16 17 16 14 14 14 15 15 15 16 18 18 17 16 13 13 13 12 12 11 9 8 8 7 5 5 5 4 4 3 3 3 3 3 4 5 6 6 6 6 6 6 6 7 8 8 9 10 10 10 10 11
10 11 10 12 15 13 10 13 17 20 17 16 17 14 12 14 17 24 21 18 21 21 19 22 22 20 21 22 21 21 20 21 21 21 19 18 19 18 17 17 16 15 15 15 16 17 17 17 15 14 14 14 15 16 17 19 18 15 14 13 13 13 11 11 10 10 9 8 7 6 5 3 3 3 3 3 3 3 3 4 4 5 5 5 6 5 5 6 6 7 7 8 10 10 10 10 11
11 12 11 11 14 16 13 11 14 20 19 16 17 15 16 19 14 20 19 17 20 19 16 17 21 20 17 18 18 19 20 20 21 20 19 19 20 20 20 19 18 17 16 15 15 16 18 17 16 15 15 16 16 16 17 17 16 15 14 13 14 14 13 12 11 11 10 8 7 6 4 3 3 3 3 3 3 3 3 4 4 5 5 6 6 5 5 6 6 7 8 8 9 10 10 10 11
15 14 13 13 12 14 15 11 15 20 18 16 17 15 18 20 12 16 18 20 22 18 14 9 14 18 16 15 15 18 22 20 20 19 18 18 19 21 22 19 18 19 19 17 16 17 18 17 16 15 16 17 16 16 17 16 15 15 15 14 15 14 13 12 12 11 9 8 8 6 5 4 4 3 3 3 3 3 3 4 4 5 5 5 5 5 5 6 6 7 8 9 9 9 9 10 11
15 15 14 16 13 11 16 12 14 18 16 15 17 16 19 19 11 13 18 22 22 14 18 12 13 14 16 15 14 19 22 19 19 19 17 16 16 18 18 16 15 17 17 17 18 18 17 16 16 16 16 17 16 15 15 14 14 14 14 15 14 13 12 12 12 11 9 8 8 6 5 5 4 4 3 2 3 3 3 4 4 5 5 4 5 5 6 6 7 7 7 8 8 9 9 9 10
14 13 13 15 12 10 16 12 12 15 13 13 17 16 18 20 13 13 17 18 17 14 17 14 9 14 15 12 14 18 21 19 18 19 18 17 16 16 15 14 15 16 17 18 19 19 19 19 17 15 16 16 14 14 14 13 14 13 12 11 11 10 10 11 11 10 10 9 8 6 6 5 4 5 4 3 3 3 3 4 5 5 5 5 5 6 7 7 7 7 7 7 8 9 9 9 10
12 11 11 12 11 11 15 14 12 13 10 10 18 16 15 19 16 14 17 16 17 18 14 18 18 16 13 12 14 16 18 18 18 19 19 17 16 16 14 14 14 15 17 18 18 20 21 20 18 16 14 14 14 14 13 12 12 11 8 7 8 9 10 10 10 9 9 7 6 6 5 5 4 5 4 4 4 4 4 4 5 6 6 6 6 6 7 7 8 8 8 9 9 10 11 11 11
11 10 10 11 13 13 12 13 13 12 10 11 16 14 12 15 17 15 17 19 18 13 13 21 20 16 19 20 20 19 18 17 17 18 18 18 18 16 15 15 15 15 16 17 18 19 19 18 17 14 13 14 14 13 12 11 11 10 10 8 8 8 9 10 9 7 6 5 5 5 4 4 4 4 5 4 4 5 5 5 6 6 7 7 7 7 7 8 9 9 10 10 11 12 12 12 12
12 13 12 11 14 15 11 11 13 10 12 14 13 11 11 13 17 15 15 20 19 15 19 14 13 17 23 25 23 22 23 20 17 15 16 18 19 18 17 17 17 17 17 17 17 18 18 17 14 12 12 13 12 12 12 12 12 12 12 11 10 8 7 8 8 6 5 5 4 4 4 4 4 4 4 3 4 5 6 6 6 6 7 7 7 7 7 8 9 10 11 11 11 13 12 12 12
12 16 15 12 13 16 11 12 13 9 10 14 12 9 9 12 17 15 14 16 14 17 18 13 12 17 21 20 19 21 22 22 21 18 18 19 19 18 17 17 17 18 17 16 16 16 16 15 12 12 13 11 10 12 13 12 11 11 11 11 10 9 7 7 8 6 6 7 6 5 5 4 3 4 4 4 3 4 5 5 5 6 7 8 8 8 8 8 9 10 11 11 10 11 13 13 13
10 13 15 15 14 16 13 12 13 8 8 14 14 10 7 11 16 16 16 15 13 13 14 16 16 18 19 18 19 21 21 21 23 22 20 19 19 18 17 18 17 16 16 15 14 15 15 15 14 14 14 13 12 13 12 10 10 9 9 9 9 9 9 9 9 9 9 8 7 5 4 4 4 3 3 3 3 3 4 5 6 7 7 8 9 10 10 9 9 9 10 11 11 11 12 13 13
9 12 16 16 14 14 15 12 11 8 8 13 17 14 7 9 14 16 18 16 15 15 13 16 19 18 17 17 19 21 20 21 25 24 23 21 20 19 18 17 16 15 15 15 14 15 17 17 16 16 16 14 13 12 11 11 10 9 9 9 8 8 9 9 9 9 8 7 6 5 4 3 3 3 3 4 3 4 5 5 6 7 6 6 8 9 9 10 10 10 10 11 11 11 11 12 13
10 11 16 14 11 12 14 12 10 9 9 10 15 15 10 8 11 16 19 19 17 19 17 15 19 21 18 16 19 21 19 20 25 25 23 22 21 20 19 16 15 15 15 16 16 16 18 19 17 17 17 14 12 12 11 12 12 10 8 8 8 8 9 9 8 7 7 7 6 4 4 2 1 3 4 5 3 3 5 4 4 5 5 5 6 7 8 9 9 9 10 10 11 12 11 12 13
12 12 15 12 9 10 10 9 9 10 10 10 14 16 11 8 9 12 16 18 18 18 18 18 21 23 19 16 18 18 16 18 23 24 23 23 22 21 19 17 16 14 15 17 16 16 19 20 17 17 16 13 13 12 10 10 10 9 7 7 8 8 9 8 7 6 6 6 4 2 2 2 3 4 5 5 3 3 3 4 4 4 5 5 5 6 7 8 7 8 9 9 11 12 11 11 12
13 10 13 12 9 8 7 7 8 8 10 12 14 16 13 10 9 10 11 13 15 14 15 18 23 24 21 18 17 15 14 16 21 23 22 22 21 19 18 18 16 14 15 17 17 17 20 21 18 16 15 14 13 12 9 8 8 8 8 8 9 8 7 7 6 5 4 3 3 2 3 4 5 5 3 3 3 4 3 3 4 4 4 5 5 5 6 6 7 8 8 9 10 10 10 10 11
13 8 11 11 9 8 6 7 8 8 10 12 14 16 15 11 8 8 11 13 14 14 14 17 22 27 26 21 18 18 18 20 22 22 22 23 22 19 18 17 16 16 17 18 18 19 20 20 19 17 16 15 13 12 10 9 8 8 9 9 8 7 6 6 5 5 4 4 4 4 3 2 2 3 2 1 3 4 3 4 4 4 4 5 6 6 7 6 7 7 8 8 9 10 11 11 11
13 9 11 10 9 9 8 9 10 9 9 10 15 17 14 11 10 9 12 15 16 13 14 16 21 28 32 28 24 25 24 23 24 24 24 24 22 20 19 19 19 19 19 19 19 20 21 21 21 19 17 15 14 13 11 10 9 9 9 9 8 7 7 7 5 5 4 4 4 3 1 0 2 2 2 2 3 4 4 4 5 5 6 6 7 7 8 7 7 7 7 8 10 10 11 12 12
14 11 12 11 9 9 10 10 9 9 8 9 15 16 12 9 10 12 9 13 15 16 16 17 19 24 30 31 29 27 27 26 25 26 26 24 22 21 20 21 21 20 20 20 20 20 21 22 21 19 17 15 14 14 12 10 10 9 8 8 6 7 8 7 6 6 4 2 2 1 1 1 0 2 2 2 3 4 4 5 5 6 7 7 7 7 7 7 7 7 7 9 10 10 11 12 13
14 12 12 11 9 8 8 9 9 9 9 10 11 11 11 9 4 5 5 9 8 10 14 16 17 19 22 26 26 25 25 25 24 26 26 23 22 22 22 22 22 20 19 19 18 18 19 20 19 18 17 14 13 12 11 10 9 9 8 7 6 5 5 5 6 5 4 3 2 1 1 1 1 1 2 3 4 4 4 5 5 5 6 7 7 8 8 7 7 8 7 8 9 9 10 12 13
12 12 12 11 10 8 6 6 4 4 8 9 8 7 7 4 4 3 5 9 6 5 8 11 13 15 17 21 23 23 23 23 23 24 25 24 22 23 23 22 22 21 20 20 18 17 17 18 17 16 15 13 12 11 9 8 7 6 5 5 4 4 3 4 4 3 3 3 3 2 1 1 0 1 2 4 4 4 4 4 4 4 6 6 7 8 8 8 9 9 9 9 9 9 11 13 13
10 12 13 11 12 10 7 6 1 2 7 8 8 8 5 4 2 3 7 10 10 9 8 9 10 12 15 18 20 22 22 22 22 23 25 24 23 24 25 23 23 24 22 21 20 18 17 17 17 16 15 13 11 10 8 7 6 5 5 4 4 5 5 4 4 4 3 2 3 2 1 1 1 1 2 3 4 4 4 4 5 6 7 7 8 8 9 9 10 10 10 10 10 11 13 14 14
9 11 13 11 12 12 8 7 5 6 8 7 10 12 10 7 6 8 10 12 13 13 12 12 13 13 14 17 20 20 20 20 21 25 26 25 25 27 26 23 24 25 23 21 21 20 19 17 16 16 15 12 10 9 7 7 6 6 6 5 5 5 5 4 4 4 4 3 3 3 2 2 1 1 2 3 4 4 5 6 6 7 8 9 9 10 10 11 11 11 11 11 12 13 15 15 14
12 11 12 10 10 11 9 8 8 9 9 8 11 13 11 10 8 11 15 14 14 15 15 14 15 15 15 17 20 19 20 22 26 30 29 27 28 27 24 23 23 23 22 21 21 21 19 17 17 15 14 12 10 9 7 6 6 6 5 5 5 5 5 5 5 4 4 5 4 3 2 2 2 2 3 3 4 5 6 7 7 8 9 9 10 10 10 11 12 11 11 11 12 14 15 15 15
14 11 12 10 8 9 10 7 7 9 8 8 11 12 10 9 10 14 16 16 15 16 15 15 16 17 18 19 20 21 24 27 28 29 28 28 30 28 25 25 25 22 22 22 21 20 19 19 18 15 13 11 9 8 7 6 7 6 6 6 5 5 5 5 5 5 5 5 5 4 3 2 3 2 3 3 4 5 5 6 7 8 8 8 9 9 10 11 11 11 11 12 13 15 15 15 16
12 11 12 12 9 8 9 8 7 8 8 7 8 10 7 4 6 13 16 16 16 16 15 13 14 18 19 19 21 24 25 26 25 26 26 28 30 30 27 25 25 24 23 22 20 19 19 19 17 14 11 10 9 8 7 7 7 7 7 7 6 6 6 5 5 5 5 5 4 4 3 2 3 3 3 4 4 5 5 6 7 7 8 8 9 9 10 11 11 12 13 13 14 15 15 15 16
14 10 10 12 10 9 8 9 10 9 9 8 7 9 5 3 2 8 11 13 14 15 15 14 15 18 18 17 22 25 25 25 27 27 28 29 29 29 28 25 24 24 22 22 21 19 18 17 15 13 11 11 10 8 8 7 7 7 7 7 6 6 6 6 6 5 5 4 4 3 3 3 3 3 3 4 4 5 6 7 7 7 8 9 10 11 12 12 12 12 13 14 14 14 15 16 17
Wind_Direction
287 294 301 308 318 316 298 294 284 267 262 264 263 267 262 243 240 286 275 263 252 107 53 353 10 353 339 284 295 350 33 1 6 343 116 130 137 151 155 145 160 158 159 167 168 170 168 176 168 159 151 147 146 146 151 148 149 150 152 150 149 148 142 136 125 119 117 117 117 118 118 117 120 118 116 115 114 112 112 114 113 110 107 106 102 93 82 76 86 91 85 78 78 75 68 67 57
280 289 301 308 307 296 297 302 284 278 271 265 259 259 260 249 222 244 259 280 338 48 13 334 346 333 319 250 272 298 56 28 24 66 107 128 137 146 153 149 158 163 158 163 169 170 168 170 167 159 151 151 148 147 149 147 148 147 148 145 145 139 135 132 124 122 119 118 119 119 119 119 122 122 121 119 120 118 117 116 114 114 116 114 105 90 81 88 103 100 89 86 85 77 68 65 57
272 282 298 299 290 274 282 287 270 269 266 264 260 252 248 245 242 255 279 346 26 11 323 311 301 306 282 249 272 291 82 58 59 100 115 132 141 145 151 149 156 167 158 159 169 172 168 167 165 157 151 153 149 147 148 148 148 146 147 146 141 135 134 132 124 123 121 120 121 121 122 123 125 127 128 128 129 125 123 124 125 127 128 127 110 88 86 106 114 102 92 88 85 76 69 66 63
269 278 283 283 285 274 266 265 261 263 262 260 266 263 256 253 261 270 338 1 7 322 295 294 280 212 291 292 356 253 128 110 116 120 134 147 149 146 147 150 159 166 154 152 165 174 169 167 164 156 152 154 152 148 150 152 149 148 148 147 140 136 136 131 126 125 123 123 123 122 124 127 128 131 134 135 135 131 132 135 136 137 138 137 120 94 102 120 117 108 98 88 80 78 78 76 74
271 275 266 268 278 284 277 266 264 256 256 264 267 263 267 275 271 278 30 355 313 299 283 281 278 213 263 284 309 269 128 113 114 146 143 142 145 145 147 151 155 151 148 148 158 172 168 167 165 155 153 154 155 149 152 155 150 149 148 146 139 135 134 130 130 129 127 127 126 125 127 133 135 138 139 138 139 136 140 144 144 145 149 148 131 111 120 131 123 116 104 90 85 87 87 85 85
270 267 251 251 262 280 280 261 262 259 258 266 270 271 277 282 277 293 6 287 262 279 276 268 275 272 260 222 295 45 116 124 114 147 138 135 141 143 148 150 150 142 146 148 153 167 166 167 165 155 153 156 156 151 153 155 150 148 146 143 136 134 132 132 134 132 133 131 132 132 134 138 140 144 142 143 145 144 148 151 154 152 153 150 130 117 132 142 131 119 103 93 95 94 90 90 93
252 256 238 234 252 255 255 256 259 262 259 259 263 266 269 268 273 297 294 281 246 240 244 257 269 279 289 157 137 78 100 127 127 147 136 136 141 142 147 145 144 144 148 150 156 164 163 165 164 156 152 157 158 153 153 152 150 148 146 142 136 136 136 138 138 138 139 135 139 140 143 145 143 148 147 148 145 144 140 140 146 136 132 131 125 121 137 148 136 122 106 103 104 99 94 95 98
236 249 244 242 251 236 240 254 253 257 259 259 263 265 267 270 280 292 279 283 268 253 232 234 238 253 275 252 212 108 96 109 129 138 134 138 141 142 145 142 143 146 148 156 165 161 160 164 163 157 152 158 160 155 150 149 151 150 148 142 138 141 143 145 142 143 140 139 146 145 149 151 151 154 151 147 135 126 116 116 118 113 113 115 125 125 134 143 142 128 115 117 113 105 102 100 100
226 233 245 251 253 250 250 254 253 254 255 258 260 261 266 269 272 267 272 276 261 261 254 241 225 249 271 250 187 121 110 114 128 133 134 140 143 142 142 145 146 144 151 164 169 158 158 162 160 156 152 157 160 155 148 148 152 153 149 144 145 148 149 148 143 143 141 147 154 154 157 160 161 156 155 148 130 114 100 101 101 102 107 111 127 130 132 137 141 133 124 127 121 114 109 106 104
222 221 234 248 244 253 252 254 257 254 252 254 256 256 258 257 258 258 260 265 256 254 256 251 243 258 271 256 170 133 135 127 133 133 134 143 142 138 142 150 147 147 160 171 172 160 159 159 157 155 151 153 156 156 149 148 151 153 153 150 151 152 152 147 143 144 148 156 162 165 169 170 165 156 162 150 134 117 99 92 91 94 104 119 134 135 137 137 139 134 131 135 128 120 114 111 109
224 217 225 246 241 248 251 253 254 255 253 251 253 251 255 257 259 261 257 260 260 258 257 252 246 250 252 255 152 122 136 133 136 135 140 147 140 136 142 150 151 155 165 174 176 166 161 157 155 151 150 150 150 155 152 149 150 154 157 155 154 153 150 144 146 152 157 164 167 173 175 174 166 158 159 148 140 125 111 100 95 97 106 124 135 137 140 139 139 136 138 140 135 127 120 118 114
229 218 216 239 241 247 253 256 255 258 257 253 251 243 250 258 260 259 256 261 261 259 254 246 244 242 244 244 140 123 135 137 139 141 147 147 139 138 144 149 152 157 158 164 170 165 162 159 156 149 147 147 147 154 154 151 149 152 156 156 155 153 149 149 155 161 165 169 173 178 175 174 164 156 157 151 147 134 126 116 109 109 113 126 135 139 140 140 141 141 144 144 142 134 127 127 122
226 231 221 234 244 250 253 257 258 259 257 257 255 238 243 246 248 251 252 258 258 259 254 244 239 234 247 225 137 141 143 139 145 146 145 144 143 142 147 149 150 154 149 150 159 162 162 162 160 153 146 146 146 148 151 152 150 151 153 154 152 152 150 151 160 169 173 175 179 186 180 169 158 160 161 159 155 144 137 127 123 121 121 129 136 142 143 144 145 146 149 149 150 141 138 136 130
222 236 240 242 244 249 253 254 256 256 251 254 255 240 233 232 245 253 250 251 247 251 257 247 232 231 239 207 143 150 152 147 148 145 141 143 145 146 149 148 149 152 148 146 152 156 158 161 164 158 150 149 148 146 148 150 152 152 153 154 152 153 152 152 164 171 176 183 184 183 177 162 155 164 166 169 167 157 151 139 135 129 129 132 138 146 150 151 148 151 154 155 156 149 150 145 144
224 234 243 251 247 245 250 250 253 257 251 252 249 218 194 227 246 244 238 247 249 246 256 239 221 233 228 222 197 164 158 156 149 145 145 145 146 147 147 147 148 151 149 148 150 151 151 157 164 160 155 155 152 152 151 149 151 155 157 156 154 156 155 157 167 171 176 183 181 174 169 160 157 167 174 177 176 173 167 153 142 136 138 136 141 149 155 159 155 156 158 160 160 159 161 160 162
224 236 240 243 247 245 247 247 249 252 254 253 187 140 189 232 230 230 232 243 255 239 240 235 221 236 233 246 231 165 155 157 150 148 148 146 147 146 146 147 148 151 153 151 152 155 153 160 164 157 157 159 158 159 156 152 152 156 161 160 157 157 159 165 171 174 176 178 174 159 136 128 137 162 177 182 183 185 181 175 158 145 148 141 146 153 161 168 171 171 170 170 167 168 172 174 185
221 235 240 236 239 242 246 245 242 246 252 235 128 151 229 230 206 221 233 233 251 246 232 237 231 233 235 289 139 146 149 155 150 150 151 149 149 148 149 149 150 155 156 155 157 159 160 163 160 155 160 160 158 161 160 157 154 156 161 163 162 159 165 170 173 176 172 170 146 115 98 98 77 91 170 191 190 192 190 194 190 171 164 153 156 160 171 178 186 194 192 191 188 185 188 194 209
215 225 233 234 235 239 243 246 246 254 257 215 143 194 228 223 193 195 227 223 235 242 233 234 229 222 208 99 113 138 147 153 151 153 154 153 153 152 154 152 153 157 157 160 160 162 164 160 158 160 163 160 162 164 162 161 158 159 159 162 163 161 166 162 160 161 163 169 127 107 115 133 152 153 191 221 194 196 198 193 219 214 212 189 187 189 194 201 202 212 216 220 223 216 226 239 242
217 221 227 232 236 241 242 251 255 250 256 232 157 197 218 221 198 172 241 231 220 225 225 224 215 205 179 129 133 144 147 151 153 156 157 157 157 156 156 155 156 158 159 161 160 164 166 159 161 164 163 163 167 168 169 162 156 160 158 162 162 158 159 152 157 163 172 180 140 132 161 169 188 182 200 228 195 192 187 185 224 229 235 240 233 228 217 225 223 228 235 241 247 245 264 275 265
217 222 230 233 237 247 243 251 270 254 260 259 169 188 214 220 223 227 254 257 236 231 222 211 204 190 174 150 149 160 160 160 160 159 160 159 159 158 156 156 157 159 160 160 162 165 165 164 163 162 165 165 163 169 177 159 151 157 157 162 163 158 158 158 172 175 181 186 161 164 181 186 195 191 200 206 191 188 179 187 216 233 246 249 248 253 241 236 240 241 244 251 257 259 276 261 252
214 220 236 239 233 245 236 222 249 250 261 258 223 210 220 223 229 238 249 255 245 240 224 206 203 191 177 160 158 171 171 169 165 161 161 160 160 158 155 157 157 159 160 161 164 164 166 166 163 164 166 166 166 168 169 157 151 156 159 164 165 168 168 169 181 180 183 185 176 183 196 195 177 195 207 171 173 196 192 211 227 254 276 281 281 276 259 263 275 270 267 269 266 265 265 249 244
220 223 235 245 241 247 240 217 234 241 245 247 241 234 231 227 225 236 243 244 257 279 239 205 202 191 179 168 165 173 174 170 167 164 163 160 160 157 156 157 156 159 160 162 164 165 170 167 164 168 165 168 172 167 165 157 153 159 169 171 167 177 177 176 185 184 191 187 181 193 204 197 163 196 214 169 177 185 180 187 199 251 256 270 290 308 243 263 290 283 284 289 274 254 244 244 246
225 229 229 239 246 252 254 240 227 229 234 236 237 236 235 238 238 240 241 243 265 300 273 216 198 186 177 169 166 173 175 170 168 168 164 162 164 160 157 155 156 159 161 165 166 166 171 168 165 166 165 170 169 168 163 152 157 167 178 177 170 179 180 181 187 184 198 189 185 200 197 190 179 197 197 157 165 163 167 180 184 222 173 223 266 210 231 254 255 246 253 261 255 248 245 243 247
223 236 228 231 241 242 245 247 224 218 234 238 237 239 237 241 244 239 237 239 250 250 227 222 198 181 172 164 162 169 174 173 172 170 165 163 166 161 158 157 157 160 164 167 167 168 169 168 167 165 168 169 171 173 156 150 164 170 183 179 172 182 180 183 188 186 199 193 192 207 189 185 197 191 173 155 176 180 187 194 183 198 183 232 271 258 239 253 245 243 244 248 252 254 255 251 250
219 235 238 229 234 235 233 235 226 219 231 238 237 242 240 240 245 243 242 241 237 224 207 207 197 178 169 165 163 169 176 177 172 168 164 162 162 161 162 164 164 165 167 165 164 168 169 170 168 167 169 166 176 172 150 160 169 174 186 173 174 189 180 180 191 191 197 194 199 206 185 182 191 184 192 196 199 197 199 199 179 181 209 235 268 263 245 248 250 254 253 254 256 256 260 260 257
216 227 239 235 230 229 228 229 229 227 230 235 233 237 238 236 241 247 245 240 224 204 201 198 192 182 174 167 164 171 178 176 169 164 161 160 161 162 163 163 165 166 166 165 165 166 167 170 168 168 169 168 177 164 149 168 172 180 183 167 182 188 175 183 190 190 190 192 205 200 177 169 176 193 212 212 207 209 207 198 179 190 226 235 250 262 261 257 263 267 264 267 264 257 258 261 263
218 222 234 239 235 228 230 231 230 231 233 233 235 235 235 229 227 242 233 220 200 198 202 195 189 187 180 170 167 172 176 173 166 161 156 157 161 161 161 159 161 163 163 166 164 164 165 165 167 168 167 170 174 161 158 172 174 179 176 173 183 175 181 191 181 183 184 184 206 194 170 163 176 206 219 219 219 217 211 218 216 215 234 248 254 260 262 257 259 264 263 266 266 260 257 257 259
227 226 233 235 235 230 226 229 227 228 229 224 232 241 236 224 217 235 219 182 186 204 197 192 188 183 178 170 167 169 170 166 163 162 157 158 161 160 160 158 161 162 162 167 162 162 164 163 167 168 172 178 168 160 169 173 172 177 176 176 176 176 190 186 170 180 174 183 211 194 171 179 194 211 218 218 228 233 223 244 254 249 248 254 258 257 262 267 267 265 262 266 272 274 272 271 266
233 233 237 231 229 231 223 223 219 220 224 210 219 237 233 222 215 226 208 162 197 208 192 190 187 179 179 170 162 164 165 162 164 165 161 161 160 158 160 161 162 160 158 164 161 158 162 165 168 172 182 183 164 161 173 172 173 178 174 172 176 184 181 166 172 183 173 194 215 194 174 187 196 205 216 214 224 243 241 240 251 264 258 252 265 275 278 280 279 276 273 275 277 276 275 275 273
229 228 237 231 222 226 219 219 215 215 219 203 209 228 223 216 214 221 209 179 195 202 193 192 187 178 179 171 160 162 164 160 162 162 160 162 160 160 160 160 159 156 156 160 163 163 167 170 170 178 183 176 165 167 171 173 177 176 168 172 183 179 164 166 186 186 183 200 212 193 174 182 197 206 215 214 220 238 248 258 258 255 258 270 285 290 290 290 290 290 287 285 281 273 274 274 271
221 223 225 232 229 223 210 208 209 212 210 201 211 233 224 210 207 216 211 187 188 197 196 192 189 182 177 170 160 161 162 157 156 159 161 161 161 161 155 154 153 151 154 157 168 174 173 172 171 180 180 169 171 169 171 177 174 169 166 177 184 168 165 183 190 187 192 200 205 202 184 190 210 215 221 227 229 241 251 259 256 254 272 294 299 295 299 300 296 294 291 289 289 282 282 285 279
213 220 216 222 229 230 207 196 201 209 200 196 209 233 232 215 201 205 206 192 191 198 195 185 190 191 174 165 163 162 160 155 156 162 164 158 154 155 149 147 147 144 151 158 170 175 172 174 172 177 176 171 176 172 174 175 168 169 173 182 181 169 178 188 186 188 187 193 201 198 195 205 217 224 233 240 244 247 242 245 257 274 294 306 300 297 306 301 292 295 294 294 295 287 284 287 283
207 216 220 215 215 235 210 182 193 205 198 194 208 228 234 222 197 193 195 192 195 198 191 180 189 201 179 163 163 162 157 154 159 162 158 154 153 154 150 148 150 154 159 164 172 173 170 176 175 174 175 174 179 179 177 174 172 176 177 180 180 177 184 184 182 185 181 189 196 194 207 220 230 239 245 245 254 255 244 250 270 290 303 304 298 299 301 291 290 296 296 295 296 293 291 289 284
204 207 223 218 208 228 211 168 183 201 204 197 206 225 238 234 196 177 181 194 203 200 189 182 183 191 179 159 154 156 155 151 153 155 151 152 154 152 150 150 155 156 157 169 178 174 170 176 178 176 176 177 181 182 179 177 176 176 176 179 179 179 183 182 181 181 182 187 190 197 213 233 237 238 251 251 254 259 259 265 278 292 298 298 300 297 290 287 289 293 294 294 293 295 295 291 288
203 200 214 220 207 219 215 176 177 195 204 200 202 215 235 241 194 159 177 201 213 199 181 189 182 175 165 149 147 149 151 150 148 149 146 149 152 151 152 155 157 157 160 175 179 173 173 176 178 179 182 183 184 182 180 180 179 175 178 182 181 181 184 184 182 182 182 182 188 200 209 221 217 214 234 244 252 260 270 282 286 294 297 297 300 297 294 292 291 295 300 300 297 296 293 289 289
209 205 207 218 209 210 216 194 175 190 202 201 203 207 225 239 197 164 188 200 217 199 152 185 190 163 144 132 142 144 141 145 145 143 142 144 148 149 154 158 161 165 171 175 172 172 176 176 177 181 187 187 183 182 181 181 180 178 182 185 184 184 184 179 180 182 176 176 190 200 206 210 204 211 229 239 250 258 275 289 293 297 299 299 300 299 297 294 294 296 296 299 303 302 297 292 293
217 210 205 221 218 199 213 204 168 185 203 203 206 207 217 232 207 182 195 195 215 191 137 184 209 149 131 134 148 146 137 138 139 139 141 142 147 149 152 157 159 164 168 168 168 171 176 180 181 183 186 187 182 181 180 179 181 185 188 187 185 181 176 174 177 176 169 177 190 191 200 207 204 216 232 238 242 258 275 287 297 299 301 301 299 300 298 294 295 296 294 300 305 304 302 296 294
231 220 204 216 220 200 208 195 158 185 208 205 208 212 213 224 216 194 201 196 206 195 156 176 175 116 122 144 151 143 132 133 136 140 145 149 155 155 154 159 164 169 168 166 169 172 177 186 188 185 187 185 178 176 179 180 185 192 192 188 185 173 164 168 174 174 173 181 186 186 195 198 205 218 227 237 240 255 274 291 300 298 303 303 299 299 297 296 295 294 294 297 298 300 304 298 291
240 232 208 209 211 207 203 177 161 192 210 205 205 214 216 218 220 206 206 201 201 207 167 121 108 112 137 152 147 139 129 134 146 152 158 160 159 158 160 161 165 173 173 170 174 175 179 188 190 189 187 180 174 177 181 185 190 194 190 185 182 170 163 171 178 181 181 180 179 182 188 188 204 219 221 234 244 255 269 287 294 296 303 300 298 297 292 293 293 291 293 296 297 298 301 298 294
229 226 210 208 200 206 205 168 165 190 207 217 204 208 221 216 218 216 208 205 199 182 122 110 122 147 164 159 152 149 142 144 152 159 166 163 159 162 166 164 165 170 173 174 175 176 180 186 189 186 182 179 179 180 183 193 199 196 189 187 188 181 174 174 175 179 179 173 171 174 179 185 204 222 225 231 244 261 270 275 285 295 300 297 300 300 295 295 294 295 297 298 298 298 298 296 297
218 222 216 212 200 208 213 166 163 186 206 226 217 204 219 215 213 213 206 209 196 134 103 116 152 167 171 165 159 158 158 156 156 162 169 165 164 168 168 169 172 171 174 179 177 180 184 183 182 178 177 180 180 178 185 193 196 193 187 182 186 191 182 168 164 171 175 168 169 172 174 179 198 224 227 226 238 263 276 277 286 295 296 296 295 292 293 294 296 300 301 301 299 299 299 296 295
210 220 225 225 208 206 206 171 171 191 202 212 223 216 207 212 214 210 203 204 185 134 121 135 169 182 178 169 164 164 166 163 159 168 176 173 171 169 169 174 174 171 176 182 181 182 180 174 171 170 173 179 181 188 193 190 184 183 182 177 179 184 176 162 161 166 166 163 168 172 171 174 196 224 228 238 249 265 281 285 286 285 284 284 281 281 284 287 292 297 299 300 300 298 299 298 296
207 208 221 235 226 207 195 183 185 198 203 193 209 228 208 208 212 208 208 195 159 144 150 149 166 188 181 172 172 168 169 166 162 171 178 178 175 169 173 179 175 174 176 178 180 176 170 167 170 173 176 179 186 194 194 187 180 175 176 180 181 177 174 172 171 168 163 164 169 169 169 177 189 203 218 241 262 263 266 270 269 272 277 278 274 273 276 277 280 285 288 291 294 293 296 297 297
212 192 205 228 238 214 190 189 197 203 211 191 198 222 232 218 204 195 209 203 159 154 173 161 165 187 184 174 175 173 176 173 168 174 178 179 179 174 176 179 176 176 173 174 175 169 169 172 176 181 180 178 181 184 183 184 182 178 179 181 181 180 181 180 174 170 168 163 163 162 158 169 188 194 206 223 247 257 257 264 266 266 277 288 285 284 287 283 276 276 277 282 286 287 289 291 291
223 188 194 217 234 220 195 194 210 210 216 198 191 208 233 238 206 190 204 212 185 165 175 179 178 189 191 175 174 176 179 178 173 175 175 176 177 177 179 179 176 173 169 172 170 168 174 174 177 184 181 176 177 177 183 184 177 178 181 174 177 177 173 169 161 166 172 163 164 169 155 141 219 245 242 237 252 277 277 293 292 280 290 296 293 295 292 285 279 276 276 277 275 274 277 281 282
223 190 183 201 214 215 205 203 214 213 221 215 191 195 218 239 215 197 200 210 207 184 176 186 186 188 189 179 179 178 173 177 178 174 173 175 176 177 178 177 176 171 164 167 167 169 174 168 168 176 171 168 170 168 178 178 168 175 181 173 176 168 157 158 156 161 169 169 177 191 181 182 214 250 261 256 271 303 306 311 307 300 304 297 290 291 285 284 288 285 281 279 271 269 273 275 277
217 187 178 193 203 208 212 218 223 220 225 221 202 195 206 231 221 201 198 204 209 200 183 179 174 179 188 184 180 179 178 183 183 176 171 172 173 172 175 177 175 166 157 158 160 163 168 165 162 161 159 162 162 158 165 171 169 175 174 172 177 172 163 165 162 157 153 162 180 212 236 230 226 238 257 275 286 296 308 312 305 303 308 303 293 290 286 287 289 283 283 286 281 280 283 283 283
206 178 183 193 195 204 208 213 222 228 223 214 209 206 204 220 226 196 192 200 205 203 195 179 166 172 183 183 178 180 187 189 184 177 169 167 168 166 169 172 166 160 154 154 160 162 161 163 159 151 153 157 155 159 168 170 170 169 164 169 173 170 165 160 159 159 153 172 199 214 231 264 289 271 275 334 315 314 327 322 312 304 296 292 282 272 268 270 275 275 281 290 292 292 291 290 289
198 179 195 196 183 195 202 202 210 222 226 209 205 213 212 216 233 220 191 189 200 205 200 190 177 174 173 175 184 186 187 188 180 172 165 163 165 165 166 166 162 160 157 155 161 161 155 155 155 152 153 151 148 163 172 166 166 166 168 175 171 165 162 156 161 171 170 180 194 200 165 48 318 291 300 339 332 328 328 314 303 293 283 281 280 274 270 274 284 289 291 295 293 292 292 290 287
195 184 197 198 184 190 197 199 206 211 223 219 206 211 216 208 225 241 210 176 191 203 200 192 188 183 171 171 186 187 179 180 174 166 161 160 165 166 164 164 161 159 157 154 154 158 156 151 148 146 147 146 147 160 169 169 170 171 176 182 177 178 177 171 175 179 171 152 152 151 126 135 269 309 322 335 335 327 318 307 302 295 288 285 285 290 292 295 302 303 298 293 290 289 288 286 286
196 195 204 208 199 194 196 201 205 204 208 214 210 212 214 199 202 253 198 143 164 198 199 191 187 192 181 174 180 174 166 170 169 163 160 159 162 162 161 163 161 157 157 152 146 148 149 145 141 138 142 148 153 162 169 172 173 172 175 178 175 180 176 170 182 179 159 142 128 104 96 104 73 347 329 329 328 326 321 310 305 304 302 302 306 313 319 316 309 307 302 294 292 294 290 287 285
192 202 212 215 209 195 192 209 221 232 215 202 205 219 211 178 60 40 139 134 137 181 199 192 184 191 187 177 172 164 161 166 165 160 159 158 157 157 161 162 159 158 156 151 149 145 137 136 140 141 145 151 153 160 163 157 154 154 155 158 158 152 132 134 154 143 141 148 123 92 89 91 62 342 333 327 324 332 331 317 319 324 322 326 330 330 329 321 315 312 306 299 295 290 284 283 285
182 202 214 212 216 208 190 201 235 295 230 197 190 211 196 154 142 162 165 164 171 185 197 195 189 193 186 173 167 161 161 166 164 158 155 155 157 160 165 167 164 165 159 150 149 146 141 140 141 140 143 145 145 149 147 132 122 116 112 112 119 122 119 120 119 111 117 118 92 87 116 86 16 353 339 330 332 341 337 338 347 344 338 341 341 338 333 327 326 323 316 313 307 298 292 291 291
185 197 208 204 217 224 208 202 196 206 222 197 185 201 200 195 189 176 182 185 182 186 196 199 196 196 186 172 167 164 161 162 160 156 153 156 162 166 169 170 167 163 155 144 139 142 149 147 138 136 137 137 136 131 122 115 110 106 104 103 99 101 106 103 100 103 103 100 93 90 88 66 37 21 4 353 353 351 347 354 357 346 344 350 346 346 345 341 340 336 331 328 317 312 313 310 307
212 200 202 202 210 216 208 208 202 199 215 209 194 200 209 215 189 167 182 191 190 191 196 200 195 191 186 177 173 166 155 153 155 157 159 163 164 164 163 161 158 154 149 146 143 144 146 139 134 137 135 130 122 114 109 105 104 105 102 98 93 90 90 89 90 97 99 99 97 90 84 72 59 37 15 7 3 0 356 355 356 353 355 358 352 353 356 351 346 342 337 335 330 328 328 326 323
223 211 201 210 215 210 206 209 205 199 208 214 205 201 212 219 185 169 181 190 192 196 196 197 193 187 185 180 171 159 150 152 157 160 162 161 158 157 153 152 153 153 150 149 146 142 140 138 140 140 131 122 114 105 104 103 101 104 101 98 96 91 90 92 96 98 97 100 100 97 96 79 62 44 17 16 14 8 4 360 4 9 8 6 2 2 5 359 353 351 347 345 343 340 339 337 334
211 209 198 203 205 211 213 208 210 211 206 206 214 213 210 205 172 173 181 184 189 196 194 194 191 182 182 180 165 153 150 153 156 157 156 154 153 153 153 151 152 153 150 147 144 140 143 150 150 141 127 117 111 104 101 100 101 103 100 100 102 98 96 96 96 96 99 108 112 109 105 88 75 66 39 31 24 12 14 17 20 22 19 19 16 11 10 8 5 1 357 354 352 350 351 350 345
202 209 203 203 198 203 209 204 209 219 214 200 208 218 205 76 135 174 175 178 184 190 191 193 191 181 173 163 152 148 149 151 154 154 153 154 155 154 155 156 155 153 150 150 150 145 146 150 145 134 124 115 110 106 103 101 103 103 102 108 112 104 100 100 99 100 105 108 105 103 99 85 77 69 53 46 40 32 34 34 32 32 31 30 24 17 15 13 9 6 1 358 356 353 353 354 353